Regional Weather Roundup
Issued by NWS New Orleans/Baton Rouge, LA

Home | Current Version | Previous Version | Text Only | Print | Product List | Glossary On
Versions: 1 2 3 4 5 6 7 8 9 10 11 12 13 14 15 16 17 18 19 20 21 22 23 24 25 26 27 28 29 30 31 32 33 34 35 36 37 38 39 40 41 42 43 44 45 46 47 48 49 50
000
ASUS44 KLIX 140010
RWRLIX
NEW ORLEANS REGIONAL WEATHER ROUNDUP
NATIONAL WEATHER SERVICE NEW ORLEANS LA
600 PM CST SAT FEB 13 2016

NOTE: "FAIR" INDICATES FEW OR NO CLOUDS BELOW 12,000 FEET WITH NO
      SIGNIFICANT WEATHER AND/OR OBSTRUCTIONS TO VISIBILITY.
      SKY/WX - SKY CONDITION AND SIGNIFICANT WEATHER.
      TMP - AIR TEMPERATURE.     DP    - DEWPOINT TEMPERATURE.
      RH  - RELATIVE HUMIDITY.   PRES  - PRESSURE.
      HI  - HEAT INDEX.          WCI   - WIND CHILL INDEX.

*  THESE STATIONS ARE NOT NWS OR FAA STATIONS AND ARE NOT UNDER
   NWS QUALITY CONTROL.

LAZ038-040-048-061>063-065>067-069-140100-
SOUTHEAST LOUISIANA

CITY           SKY/WX    TMP DP  RH WIND       PRES   REMARKS
N.O. AUDUBON     N/A    N/A N/A N/A MISG        N/A
6HR MIN TEMP:  58; 6HR MAX TEMP:  62;

N.O. INTL ARPT PTCLDY    59  31  34 E3        30.33S
6HR MIN TEMP:  56; 6HR MAX TEMP:  62;

N.O. LAKEFRONT CLEAR     55  42  61 CALM      30.33F
6HR MIN TEMP:  54; 6HR MAX TEMP:  57; 6HR PCP: TRACE;

N.O. DOWNTOWN* NOT AVBL
RESERVE*         N/A     56  35  45 SE3       30.34R
6HR MIN TEMP:  56; 6HR MAX TEMP:  64;

SLIDELL        CLEAR     54  41  61 S3        30.33S
6HR MIN TEMP:  54; 6HR MAX TEMP:  65;

BATON ROUGE    CLEAR     59  35  40 CALM      30.33R
6HR MIN TEMP:  58; 6HR MAX TEMP:  64;

BOOTHVILLE     PTCLDY    52  40  63 NE3       30.34S
6HR MIN TEMP:  52; 6HR MAX TEMP:  57;

BELLE CHASSE   PTCLDY    54  36  50 E3        30.33S
6HR MIN TEMP:  54; 6HR MAX TEMP:  62;

BOGALUSA*        N/A     55  34  45 CALM      30.35S
6HR MIN TEMP:  55; 6HR MAX TEMP:  62;

GALLIANO*      CLEAR     56  41  55 SE3       30.34R
6HR MIN TEMP:  56; 6HR MAX TEMP:  62;

NEW ROADS*       N/A     56  40  55 NW3       30.33R
6HR MIN TEMP:  56; 6HR MAX TEMP:  63;

GONZALES*        N/A     57  38  48 S5        30.32R
6HR MIN TEMP:  57; 6HR MAX TEMP:  64;

HAMMOND*       CLEAR     57  32  38 CALM      30.33R
HOUMA*         CLEAR     55  39  54 E3        30.34
PORT FOURCHON* CLEAR     55  41  58 E7        30.35R

$$

MSZ070-080>082-140100-
SOUTHERN MISSISSIPPI

CITY           SKY/WX    TMP DP  RH WIND       PRES   REMARKS
MCCOMB         CLEAR     55  31  39 NE3       30.33S
6HR MIN TEMP:  53; 6HR MAX TEMP:  60;

GULFPORT       CLEAR     57  30  35 N5        30.33S
6HR MIN TEMP:  57; 6HR MAX TEMP:  63;

BILOXI         CLEAR     55  33  43 NE5       30.33S
6HR MIN TEMP:  55; 6HR MAX TEMP:  61;

PASCAGOULA     PTCLDY    51  31  46 N6        30.34S
6HR MIN TEMP:  51; 6HR MAX TEMP:  62;

STENNIS ARPT*  CLEAR     50  34  53 S5        30.34R

$$

COASTAL OBSERVATIONS
LAKE AND NEARSHORE STATIONS

STATION/POSITION TIME  TEMP    WIND        PRES    WAVE
                       AIR SEA DIR/SP/G            HT/PER
                 (UTC) (F)     (DEG/KT/KT) (MB)    (FT/S)
PASCAGOULA       2300   58                 1026.7
WAVELAND YACHT   2300   55 58              1026.9
GRAND ISLE       2300   55 62              1027.3
NEW CANAL        2300   57 56              1026.2
SHELL BEACH      2300   57 58              1026.4

OFFSHORE STATIONS

STATION/POSITION TIME  TEMP    WIND        PRES    WAVE
                       AIR SEA DIR/SP/G            HT/PER
                 (UTC) (F)     (DEG/KT/KT) (MB)    (FT/S)

$$




USA.gov is the U.S. government's official web portal to all federal, state and local government web resources and services.